カタログに戻る

STARLINK-11481

運用中通信VLEO
NORAD 62230·PAYLOAD·🇺🇸 United States

打ち上げ Dec 5, 2024 から Vandenberg Space Force Base

Loading…

次のパス (今後24時間)

TLE

最新Source: CelesTrak SupGP

元期: Sep 14, 2026, 22:31 UTC

1 62230C 24231N   26257.93868056  .00059614  00000+0  49096-3 0  2574
2 62230  53.1575 248.6786 0001195  88.7593 156.3652 15.69684243    15

AllMySatでSTARLINK-11481をリアルタイム追跡

Download on the App Store